Wind_Speed
55 60 66 72 79 88 96 106 116 112 109 106 102 95 92 88 85 79 74 72 71 68 67 64 61 57 56 53 50 48 43 38 35 31 30 27 24 22 21 19 19 18 16 15 19
52 57 64 70 74 80 86 96 105 116 115 112 107 103 102 97 90 87 89 74 74 71 72 68 66 63 59 58 55 52 50 46 40 36 33 32 29 25 25 22 23 22 21 20 20
56 52 59 66 74 77 79 79 93 103 114 118 115 110 106 105 96 95 92 83 77 76 76 74 69 69 65 61 60 58 56 51 47 42 39 34 34 33 29 29 27 26 24 23 23
64 60 55 59 68 76 76 72 78 88 101 115 120 119 113 108 100 99 94 92 86 81 79 79 75 73 71 67 64 63 59 56 54 50 45 41 37 36 33 30 31 32 30 28 26
67 65 64 59 61 70 69 68 72 81 93 101 119 127 120 113 97 102 99 96 94 88 83 84 81 77 74 74 69 65 64 60 59 55 52 47 45 41 38 35 32 31 31 29 28
71 68 66 64 59 66 66 62 67 77 87 98 106 124 126 116 105 109 103 98 96 93 91 88 88 86 80 78 72 71 67 63 61 58 56 53 51 46 45 41 38 36 34 33 30
72 70 71 63 55 57 62 59 60 69 80 91 103 110 119 111 112 116 107 102 100 97 96 94 96 88 85 82 77 75 69 65 62 63 60 59 53 54 51 47 45 41 39 38 34
77 77 72 70 58 53 54 56 54 61 72 83 96 109 104 114 118 122 112 109 106 103 101 101 100 96 88 85 82 79 73 68 65 66 67 62 58 62 57 51 50 47 45 43 42
85 83 79 72 60 50 53 53 53 58 65 76 92 102 97 109 118 124 121 116 116 110 109 110 103 99 96 90 85 79 72 71 71 69 71 66 66 64 60 55 52 49 47 46 45
92 90 87 77 68 52 48 51 55 56 65 75 85 97 98 103 118 126 129 124 120 118 115 110 103 103 99 94 81 78 75 76 78 76 74 69 68 68 62 58 56 53 51 50 48
99 99 94 82 76 61 51 49 52 55 61 73 80 87 94 107 115 125 134 131 128 126 115 109 106 100 96 94 91 91 88 85 83 81 76 70 68 69 65 61 59 57 55 52 51
105 104 97 95 79 66 53 48 49 52 53 67 77 80 89 106 114 122 136 135 132 122 115 118 104 98 102 101 98 98 93 86 88 85 78 75 72 75 67 63 64 63 59 58 55
110 108 105 101 85 73 58 49 47 44 45 59 73 75 89 101 114 118 128 133 133 127 126 120 103 110 109 108 105 100 95 92 92 93 86 81 75 74 70 64 66 65 64 60 59
114 112 110 101 88 75 60 51 44 40 38 57 62 69 87 94 112 122 124 131 136 133 127 124 120 114 113 110 110 105 98 98 97 99 89 88 80 75 71 66 64 64 67 66 64
116 117 111 105 93 76 62 49 44 35 31 55 58 68 84 90 99 119 121 129 134 135 136 125 121 117 116 106 108 101 108 108 105 104 100 90 81 75 73 67 65 71 66 65 66
116 119 117 106 95 71 58 52 41 34 40 51 58 66 81 91 101 116 126 129 130 139 141 132 129 126 116 118 117 113 118 113 113 110 103 85 78 73 72 68 71 73 71 67 67
119 118 117 107 96 71 57 48 43 41 41 52 56 65 76 87 98 113 128 129 128 137 145 137 134 128 125 127 127 123 121 117 117 111 89 86 84 67 69 69 76 76 74 72 71
123 115 113 104 87 67 60 50 44 40 41 48 56 64 73 82 91 106 120 124 121 130 141 139 137 132 128 125 125 116 115 114 111 104 92 91 80 68 71 75 80 78 77 74 74
124 116 109 101 78 71 63 51 44 39 40 37 50 62 73 81 89 102 113 121 134 130 136 139 140 135 130 127 128 122 125 111 115 112 104 94 85 83 79 82 82 80 79 78 77
126 111 103 90 81 73 65 52 42 38 36 35 44 51 65 76 83 96 111 120 128 128 137 142 144 140 135 135 134 130 120 127 126 115 101 94 84 80 83 85 84 83 82 81 77
124 113 100 91 80 68 65 53 42 37 36 38 44 51 56 66 76 87 95 109 122 126 134 133 139 142 141 139 136 133 131 128 123 115 105 96 90 86 89 90 89 87 84 83 81
117 107 98 90 82 68 62 50 44 34 37 40 42 51 54 61 65 78 90 98 114 129 132 132 138 143 143 138 138 136 131 128 128 118 106 100 90 91 91 92 90 90 89 86 85
111 108 96 89 80 73 58 49 44 36 37 41 45 51 56 59 61 69 80 93 105 122 129 127 133 138 144 146 144 143 137 132 127 123 119 112 95 97 95 96 93 91 92 91 90
113 102 95 88 79 70 59 46 40 39 36 40 47 47 51 58 63 66 74 84 99 110 124 131 136 130 134 140 142 141 138 134 128 125 114 113 99 96 97 96 95 96 96 93 90
105 97 90 84 77 66 55 45 36 38 37 40 46 47 50 56 62 68 74 80 85 94 103 120 131 121 123 134 142 144 142 137 136 128 125 111 105 101 104 105 103 101 96 89 87
104 91 80 83 72 63 50 44 36 36 40 38 44 47 48 55 62 66 73 76 79 88 102 115 118 121 121 127 134 142 144 143 141 134 135 124 115 110 110 108 102 98 94 90 89
97 88 78 75 72 60 49 40 35 35 41 38 45 49 51 55 59 66 71 77 82 85 92 96 103 111 116 120 127 138 141 144 141 133 129 125 114 112 108 108 106 102 99 98 96
Wind_Direction
297 288 279 272 263 255 248 246 242 239 240 239 238 236 236 237 239 240 232 230 231 231 231 228 226 225 228 231 227 227 228 223 221 218 210 213 211 219 210 201 193 182 180 178 165
309 298 282 271 268 264 256 248 243 239 238 238 238 236 234 235 237 240 235 235 230 231 232 229 227 225 226 228 230 227 226 226 225 220 216 213 213 216 217 210 202 196 191 185 185
321 306 295 281 271 267 263 254 246 241 238 236 237 236 234 231 234 235 236 237 231 230 230 230 227 228 225 226 227 229 225 223 226 222 218 216 218 215 218 216 214 216 213 206 206
331 329 310 291 280 274 270 261 250 243 238 236 235 235 233 233 232 234 235 234 233 232 230 230 229 228 227 225 226 227 230 227 226 223 223 221 221 223 222 221 222 223 227 222 221
333 333 327 315 292 281 277 267 255 243 236 236 234 233 232 231 230 232 231 233 234 233 227 229 229 229 228 226 225 227 229 227 228 225 224 224 224 223 226 226 229 230 229 229 230
333 333 331 328 307 290 281 272 259 247 238 232 233 232 230 229 228 231 230 230 230 231 226 226 227 229 228 228 225 228 227 226 230 229 226 225 227 226 225 227 230 234 237 236 235
333 331 332 332 316 297 285 278 265 250 240 231 229 232 229 227 226 231 229 228 228 229 228 223 225 226 229 227 225 228 227 225 228 229 228 227 226 230 228 230 233 233 236 240 240
338 336 333 335 325 302 286 278 266 253 244 232 226 227 227 224 224 230 227 227 227 226 226 225 223 223 226 228 227 227 227 226 228 229 229 230 229 232 230 231 237 238 238 239 242
341 339 338 334 330 313 292 278 268 254 244 237 228 225 222 223 222 227 226 226 226 225 224 225 223 221 222 224 226 228 227 229 230 230 230 230 230 231 234 232 235 240 244 247 248
344 342 337 335 332 325 299 286 270 259 245 239 233 226 221 221 220 222 226 225 226 225 224 226 226 222 221 224 224 228 229 230 231 230 231 229 230 234 233 234 235 237 241 246 247
344 342 341 337 333 328 315 289 276 265 249 240 233 229 221 218 219 220 225 224 225 225 224 226 226 225 222 221 222 224 226 228 232 231 231 231 231 236 236 235 236 235 237 241 248
345 344 342 338 332 328 319 298 279 269 256 243 233 229 223 216 218 219 222 223 225 226 226 226 225 223 222 221 220 224 224 227 232 233 228 230 231 237 236 235 238 239 239 240 243
344 342 342 338 334 331 321 306 287 266 256 246 235 226 224 216 215 219 221 222 224 222 225 225 220 221 224 223 221 224 223 228 232 234 230 228 228 235 235 235 238 241 243 243 244
342 340 340 339 336 331 321 309 295 274 256 245 232 226 226 214 213 218 219 221 221 223 223 224 222 220 222 221 223 223 224 227 230 234 232 232 226 231 236 236 241 244 243 244 246
340 341 339 337 337 330 321 310 298 278 249 242 230 220 220 217 212 215 219 220 219 222 224 223 224 220 221 223 227 225 227 226 227 231 230 230 227 230 233 234 240 242 243 246 246
338 338 338 335 336 329 324 314 300 275 245 239 231 220 220 216 210 214 217 220 218 219 223 221 222 221 219 223 226 226 228 228 228 228 228 230 230 224 235 237 239 241 242 244 248
338 335 336 335 333 329 327 313 301 275 248 239 229 219 218 216 211 213 215 220 219 218 220 221 221 222 220 222 225 227 228 229 230 231 228 232 232 222 232 239 242 244 244 243 243
335 335 334 333 330 329 327 315 301 280 258 244 235 221 212 214 210 212 215 218 222 221 220 221 223 222 222 225 229 230 233 233 234 235 231 230 229 228 231 235 242 243 245 247 248
336 335 332 332 331 330 327 316 300 284 265 244 243 227 215 213 210 210 213 214 221 219 220 220 221 221 223 224 227 228 229 232 233 232 230 229 229 230 230 234 239 243 246 247 249
336 335 331 333 330 330 326 316 302 284 265 241 235 233 225 217 213 212 211 215 218 220 221 218 219 221 221 223 226 227 227 229 231 231 232 231 230 232 234 235 239 240 243 246 249
335 332 330 334 331 327 322 314 300 282 263 244 231 226 225 221 216 215 213 214 217 219 222 221 219 219 221 223 225 227 227 228 231 230 230 228 229 232 234 238 239 241 243 246 249
333 332 333 329 327 325 320 313 296 279 261 247 229 225 222 219 216 218 216 216 218 220 223 221 221 219 221 223 225 228 228 229 229 230 232 231 230 235 238 238 241 243 246 247 249
334 334 331 328 324 322 317 308 293 279 260 249 234 224 221 219 213 214 218 217 218 220 221 222 223 220 220 220 223 225 226 229 230 229 229 229 225 232 235 237 239 244 248 250 252
332 329 328 324 322 317 314 306 290 276 259 248 241 224 221 221 213 212 214 218 218 218 220 222 225 222 222 222 223 226 229 229 231 231 231 232 231 233 237 241 242 244 246 249 252
328 327 326 321 318 314 310 303 289 274 259 245 240 228 220 220 216 214 215 217 219 222 220 221 226 224 223 224 225 225 227 228 229 230 232 232 232 232 237 237 239 242 245 249 253
327 325 324 321 315 311 307 300 285 268 257 243 237 232 219 219 217 214 217 217 218 219 222 221 223 222 221 223 226 227 227 229 231 229 230 230 229 230 234 239 241 244 247 250 252
325 324 324 321 313 309 306 299 282 266 256 243 236 227 220 216 216 215 216 219 220 219 223 224 226 224 221 223 226 226 227 229 231 233 235 235 234 233 235 238 242 244 246 248 251
Height
10675 10669 10665 10660 10658 10659 10661 10665 10675 10686 10697 10705 10715 10726 10734 10743 10752 10762 10763 10769 10779 10787 10793 10802 10809 10815 10821 10827 10831 10836 10840 10843 10846 10849 10852 10854 10856 10858 10860 10860 10862 10863 10864 10865 10866
10660 10650 10642 10635 10631 10630 10632 10636 10643 10655 10667 10678 10688 10701 10712 10724 10736 10746 10733 10762 10766 10774 10780 10788 10797 10804 10810 10817 10822 10827 10832 10836 10839 10843 10846 10849 10851 10854 10856 10858 10859 10861 10862 10864 10865
10645 10634 10624 10615 10608 10603 10603 10606 10614 10625 10635 10648 10660 10673 10686 10701 10718 10718 10733 10745 10749 10757 10765 10775 10784 10789 10798 10806 10811 10815 10820 10828 10831 10836 10840 10843 10846 10848 10851 10853 10855 10857 10859 10860 10862
10630 10619 10607 10594 10585 10578 10576 10580 10582 10592 10603 10614 10629 10640 10660 10676 10701 10694 10717 10723 10731 10742 10752 10759 10769 10776 10783 10792 10797 10804 10812 10819 10822 10828 10832 10836 10840 10843 10846 10848 10850 10852 10854 10856 10858
10614 10601 10589 10574 10561 10553 10550 10551 10552 10556 10568 10581 10594 10604 10629 10652 10692 10672 10688 10702 10715 10726 10734 10745 10754 10759 10768 10774 10784 10793 10799 10807 10812 10819 10824 10829 10831 10836 10839 10843 10846 10848 10850 10852 10853
10602 10587 10573 10557 10543 10531 10527 10525 10525 10529 10535 10546 10561 10572 10599 10638 10664 10649 10664 10683 10694 10704 10713 10727 10732 10736 10749 10761 10775 10774 10786 10796 10804 10810 10816 10820 10823 10828 10830 10834 10838 10841 10844 10846 10849
10588 10572 10559 10545 10529 10515 10505 10502 10503 10504 10508 10518 10532 10542 10572 10631 10632 10625 10648 10660 10673 10682 10694 10699 10708 10725 10734 10744 10758 10762 10776 10786 10795 10799 10803 10807 10818 10815 10822 10827 10831 10834 10837 10841 10843
10572 10556 10540 10525 10513 10500 10487 10480 10479 10481 10486 10492 10501 10516 10557 10587 10596 10599 10625 10636 10647 10657 10666 10674 10687 10704 10720 10731 10742 10750 10763 10776 10782 10786 10790 10798 10804 10800 10813 10821 10822 10826 10829 10833 10835
10554 10538 10524 10509 10496 10486 10472 10464 10460 10460 10460 10468 10479 10493 10536 10551 10574 10577 10593 10608 10613 10628 10637 10644 10667 10688 10696 10714 10726 10741 10758 10764 10766 10771 10775 10788 10788 10792 10803 10812 10813 10817 10822 10824 10827
10533 10517 10504 10490 10478 10468 10457 10447 10440 10439 10441 10442 10456 10472 10510 10526 10536 10550 10560 10576 10590 10598 10611 10631 10655 10670 10684 10701 10729 10735 10743 10746 10744 10753 10760 10773 10778 10780 10794 10802 10804 10809 10811 10813 10817
10514 10496 10482 10469 10458 10449 10437 10426 10419 10419 10419 10421 10434 10453 10476 10489 10500 10525 10525 10545 10560 10569 10601 10620 10634 10665 10686 10692 10699 10703 10710 10719 10726 10733 10748 10762 10769 10771 10782 10792 10794 10797 10802 10805 10806
10499 10481 10465 10449 10439 10429 10418 10407 10401 10396 10399 10398 10407 10428 10444 10458 10478 10492 10493 10520 10538 10570 10593 10590 10630 10662 10657 10665 10675 10681 10695 10708 10707 10717 10735 10744 10754 10750 10770 10782 10783 10786 10793 10795 10799
10479 10464 10449 10432 10420 10408 10397 10385 10379 10378 10378 10371 10381 10406 10411 10429 10454 10464 10476 10502 10520 10546 10551 10574 10632 10620 10631 10641 10653 10666 10684 10690 10692 10693 10712 10725 10739 10743 10755 10767 10770 10776 10779 10786 10788
10462 10445 10431 10417 10399 10387 10378 10365 10358 10357 10362 10345 10363 10381 10387 10408 10422 10432 10449 10469 10492 10518 10541 10555 10575 10600 10609 10622 10632 10648 10668 10664 10670 10671 10698 10705 10728 10732 10741 10756 10762 10765 10768 10771 10776
10445 10428 10412 10398 10382 10369 10355 10348 10341 10340 10341 10326 10339 10352 10353 10379 10405 10417 10431 10436 10468 10497 10503 10545 10563 10583 10593 10628 10622 10650 10632 10638 10642 10648 10665 10688 10711 10730 10733 10745 10750 10745 10754 10760 10765
10428 10409 10395 10378 10360 10352 10338 10328 10325 10322 10311 10310 10315 10331 10334 10349 10374 10383 10392 10406 10439 10461 10470 10514 10528 10543 10584 10587 10593 10602 10595 10612 10617 10630 10645 10688 10700 10722 10726 10735 10730 10731 10739 10746 10750
10409 10389 10373 10360 10345 10331 10320 10313 10307 10299 10300 10295 10302 10310 10320 10332 10355 10360 10370 10384 10409 10427 10441 10481 10502 10529 10546 10551 10556 10569 10580 10594 10598 10612 10667 10678 10680 10719 10716 10720 10713 10715 10724 10731 10736
10389 10373 10353 10340 10326 10315 10303 10294 10290 10285 10284 10286 10291 10295 10304 10311 10331 10340 10354 10372 10396 10414 10430 10460 10478 10507 10529 10544 10556 10576 10586 10591 10603 10624 10655 10660 10674 10704 10705 10699 10695 10703 10708 10715 10718
10372 10352 10337 10323 10306 10295 10286 10278 10271 10269 10268 10276 10276 10282 10287 10291 10306 10324 10336 10360 10355 10385 10406 10437 10454 10482 10505 10520 10522 10544 10540 10588 10577 10592 10616 10644 10662 10675 10685 10683 10684 10690 10695 10699 10703
10353 10331 10317 10304 10288 10277 10269 10261 10257 10253 10253 10258 10258 10266 10276 10283 10292 10302 10315 10338 10338 10361 10374 10400 10425 10453 10478 10483 10491 10508 10545 10529 10540 10571 10607 10635 10651 10666 10669 10670 10671 10675 10678 10683 10689
10334 10316 10293 10281 10271 10265 10253 10245 10239 10237 10237 10240 10242 10245 10256 10269 10281 10290 10311 10319 10325 10342 10350 10383 10404 10429 10438 10459 10478 10491 10500 10516 10536 10558 10585 10615 10633 10647 10649 10651 10656 10657 10666 10672 10677
10315 10295 10274 10264 10252 10248 10240 10232 10223 10223 10221 10222 10228 10230 10240 10249 10265 10277 10291 10304 10314 10313 10324 10349 10368 10394 10421 10449 10458 10465 10488 10500 10506 10542 10577 10597 10624 10632 10635 10637 10642 10646 10650 10658 10661
10294 10270 10261 10246 10236 10225 10223 10216 10207 10206 10207 10207 10211 10218 10223 10232 10248 10257 10270 10280 10289 10300 10312 10326 10344 10371 10392 10408 10422 10439 10466 10482 10504 10522 10537 10564 10610 10608 10615 10621 10628 10632 10634 10640 10646
10272 10260 10243 10228 10219 10211 10203 10200 10193 10189 10194 10192 10195 10205 10213 10220 10230 10239 10248 10259 10267 10275 10293 10307 10316 10353 10382 10403 10423 10435 10450 10471 10491 10509 10543 10553 10592 10601 10605 10608 10613 10616 10617 10625 10634
10260 10246 10230 10209 10197 10193 10187 10182 10180 10174 10176 10178 10180 10189 10198 10204 10214 10221 10229 10243 10258 10267 10282 10295 10306 10346 10368 10382 10393 10414 10425 10441 10453 10488 10501 10546 10563 10577 10576 10577 10583 10591 10606 10620 10624
10239 10227 10217 10196 10178 10173 10171 10163 10162 10159 10158 10164 10165 10173 10185 10189 10197 10209 10215 10229 10242 10254 10259 10274 10292 10319 10341 10356 10373 10392 10408 10420 10436 10464 10466 10502 10532 10548 10550 10557 10577 10587 10597 10607 10609
10217 10205 10195 10180 10160 10155 10151 10149 10144 10143 10141 10148 10149 10155 10164 10173 10186 10193 10204 10211 10222 10237 10251 10271 10282 10302 10329 10340 10350 10351 10384 10410 10430 10456 10473 10494 10523 10530 10547 10554 10559 10571 10580 10583 10587